When you browse on this site, cookies collect data to enhance your experience and personalize the content and advertising you see.
Visit our Privacy Policy to learn more. By continuing to use the site, you agree to this use of cookies and data.
  • en Belgique
  • Liste des pays
  • À 7 jours
  • Température de l'eau
  • Carte météo
  • Widgets météo
  • user-avatar
    Se connecter

    Météo par heure à Molouprei

    Ce jour, 20 Novembre, Mercredi

    Heure Température Précipitation Vent Pression Humidité
    00:00 +26°C° 0.1 mm 2 m/s 758 mmHg 82%
    01:00 +25°C° 0 mm 2 m/s 758 mmHg 84%
    02:00 +25°C° 0.1 mm 2 m/s 758 mmHg 85%
    03:00 +25°C° 0.1 mm 2 m/s 757 mmHg 87%
    04:00 +24°C° 0.1 mm 2 m/s 757 mmHg 89%
    05:00 +24°C° 0 mm 2 m/s 758 mmHg 88%
    06:00 +24°C° 0 mm 1 m/s 758 mmHg 87%
    07:00 +24°C° 0 mm 1 m/s 759 mmHg 90%
    08:00 +26°C° 0 mm 2 m/s 759 mmHg 82%
    09:00 +28°C° 0 mm 2 m/s 760 mmHg 74%
    10:00 +29°C° 0 mm 2 m/s 760 mmHg 66%
    11:00 +30°C° 0 mm 2 m/s 759 mmHg 62%
    12:00 +31°C° 0 mm 2 m/s 758 mmHg 58%
    13:00 +33°C° 0 mm 3 m/s 757 mmHg 53%
    14:00 +32°C° 0 mm 2 m/s 757 mmHg 54%
    15:00 +32°C° 0 mm 2 m/s 756 mmHg 54%
    16:00 +32°C° 0 mm 2 m/s 756 mmHg 55%
    17:00 +31°C° 0 mm 2 m/s 756 mmHg 60%
    18:00 +29°C° 0 mm 2 m/s 757 mmHg 65%
    19:00 +27°C° 0 mm 1 m/s 757 mmHg 70%
    20:00 +27°C° 0 mm 1 m/s 758 mmHg 72%
    21:00 +26°C° 0 mm 1 m/s 758 mmHg 74%
    22:00 +26°C° 0 mm 1 m/s 758 mmHg 76%
    23:00 +26°C° 0 mm 1 m/s 758 mmHg 77%

    Demain, 21 Novembre, Jeudi

    Heure Température Précipitation Vent Pression Humidité
    00:00 +25°C° 0 mm 2 m/s 758 mmHg 78%
    01:00 +25°C° 0 mm 2 m/s 758 mmHg 79%
    02:00 +25°C° 0 mm 2 m/s 758 mmHg 77%
    03:00 +25°C° 0 mm 2 m/s 758 mmHg 75%
    04:00 +25°C° 0 mm 3 m/s 758 mmHg 74%
    05:00 +25°C° 0 mm 2 m/s 758 mmHg 75%
    06:00 +24°C° 0 mm 2 m/s 758 mmHg 77%
    07:00 +24°C° 0 mm 2 m/s 759 mmHg 78%
    08:00 +26°C° 0 mm 2 m/s 759 mmHg 75%
    09:00 +27°C° 0 mm 1 m/s 759 mmHg 71%
    10:00 +28°C° 0 mm 1 m/s 760 mmHg 68%
    11:00 +29°C° 0 mm 1 m/s 759 mmHg 65%
    12:00 +30°C° 0 mm 2 m/s 758 mmHg 61%
    13:00 +31°C° 0 mm 2 m/s 758 mmHg 58%
    14:00 +31°C° 0 mm 2 m/s 757 mmHg 58%
    15:00 +31°C° 0 mm 2 m/s 757 mmHg 57%
    16:00 +32°C° 0 mm 2 m/s 756 mmHg 57%
    17:00 +30°C° 0 mm 2 m/s 757 mmHg 61%
    18:00 +29°C° 0 mm 1 m/s 757 mmHg 65%
    19:00 +28°C° 0 mm 1 m/s 757 mmHg 69%
    20:00 +27°C° 0 mm 1 m/s 758 mmHg 71%
    21:00 +26°C° 0 mm 1 m/s 758 mmHg 73%
    22:00 +26°C° 0 mm 1 m/s 759 mmHg 75%
    23:00 +25°C° 0 mm 1 m/s 759 mmHg 76%

    Après-demain, 22 Novembre, Vendredi

    Heure Température Précipitation Vent Pression Humidité
    00:00 +25°C° 0 mm 2 m/s 759 mmHg 78%
    01:00 +24°C° 0 mm 2 m/s 758 mmHg 79%
    02:00 +24°C° 0 mm 2 m/s 758 mmHg 80%
    03:00 +23°C° 0 mm 2 m/s 758 mmHg 81%
    04:00 +23°C° 0 mm 2 m/s 758 mmHg 83%
    05:00 +23°C° 0 mm 2 m/s 758 mmHg 83%
    06:00 +23°C° 0 mm 2 m/s 759 mmHg 83%
    07:00 +23°C° 0 mm 2 m/s 759 mmHg 84%
    08:00 +25°C° 0 mm 1 m/s 759 mmHg 77%
    09:00 +27°C° 0 mm 1 m/s 759 mmHg 70%
    10:00 +29°C° 0 mm 1 m/s 760 mmHg 64%
    11:00 +30°C° 0 mm 1 m/s 759 mmHg 60%
    12:00 +31°C° 0 mm 1 m/s 758 mmHg 57%
    13:00 +32°C° 0 mm 1 m/s 757 mmHg 54%
    14:00 +32°C° 0 mm 1 m/s 757 mmHg 54%
    15:00 +32°C° 0 mm 1 m/s 756 mmHg 55%
    16:00 +32°C° 0 mm 1 m/s 756 mmHg 55%
    17:00 +30°C° 0 mm 1 m/s 756 mmHg 59%
    18:00 +29°C° 0 mm 1 m/s 757 mmHg 63%
    19:00 +25°C° 0 mm 0 m/s 757 mmHg 67%
    20:00 +25°C° 0 mm 0 m/s 757 mmHg 68%
    21:00 +24°C° 0 mm 0 m/s 758 mmHg 69%
    22:00 +24°C° 0 mm 0 m/s 758 mmHg 70%
    23:00 +24°C° 0 mm 0 m/s 758 mmHg 72%

    23 Novembre, Samedi

    Heure Température Précipitation Vent Pression Humidité
    00:00 +25°C° 0 mm 1 m/s 758 mmHg 74%
    01:00 +25°C° 0 mm 1 m/s 758 mmHg 75%
    02:00 +25°C° 0 mm 1 m/s 757 mmHg 77%
    03:00 +24°C° 0 mm 1 m/s 757 mmHg 78%
    04:00 +24°C° 0 mm 1 m/s 757 mmHg 79%
    05:00 +24°C° 0 mm 1 m/s 757 mmHg 80%
    06:00 +24°C° 0 mm 1 m/s 758 mmHg 81%
    07:00 +24°C° 0 mm 1 m/s 758 mmHg 81%
    08:00 +26°C° 0 mm 2 m/s 759 mmHg 75%
    09:00 +28°C° 0 mm 2 m/s 759 mmHg 69%
    10:00 +29°C° 0 mm 2 m/s 759 mmHg 63%
    11:00 +30°C° 0 mm 2 m/s 759 mmHg 60%
    12:00 +31°C° 0 mm 1 m/s 758 mmHg 57%
    13:00 +32°C° 0 mm 1 m/s 757 mmHg 54%
    14:00 +32°C° 0 mm 1 m/s 757 mmHg 54%
    15:00 +32°C° 0 mm 1 m/s 756 mmHg 53%
    16:00 +32°C° 0 mm 1 m/s 756 mmHg 52%
    17:00 +30°C° 0 mm 1 m/s 756 mmHg 56%
    18:00 +29°C° 0 mm 1 m/s 757 mmHg 60%
    19:00 +25°C° 0 mm 0 m/s 757 mmHg 64%
    20:00 +24°C° 0 mm 0 m/s 757 mmHg 65%
    21:00 +24°C° 0 mm 0 m/s 758 mmHg 67%
    22:00 +25°C° 0 mm 1 m/s 758 mmHg 69%
    23:00 +23°C° 0 mm 0 m/s 758 mmHg 71%

    24 Novembre, Dimanche

    Heure Température Précipitation Vent Pression Humidité
    00:00 +23°C° 0 mm 0 m/s 758 mmHg 73%
    01:00 +22°C° 0 mm 0 m/s 757 mmHg 75%
    02:00 +22°C° 0 mm 0 m/s 757 mmHg 76%
    03:00 +21°C° 0 mm 0 m/s 757 mmHg 78%
    04:00 +23°C° 0 mm 1 m/s 757 mmHg 79%
    05:00 +23°C° 0 mm 1 m/s 757 mmHg 79%
    06:00 +23°C° 0 mm 1 m/s 758 mmHg 80%
    07:00 +24°C° 0 mm 1 m/s 758 mmHg 80%
    08:00 +26°C° 0 mm 1 m/s 758 mmHg 74%
    09:00 +28°C° 0 mm 2 m/s 759 mmHg 67%
    10:00 +30°C° 0 mm 2 m/s 759 mmHg 60%
    11:00 +31°C° 0 mm 2 m/s 758 mmHg 56%
    12:00 +32°C° 0 mm 2 m/s 757 mmHg 52%
    13:00 +34°C° 0 mm 2 m/s 757 mmHg 48%
    14:00 +34°C° 0 mm 2 m/s 756 mmHg 48%
    15:00 +34°C° 0 mm 2 m/s 756 mmHg 48%
    16:00 +33°C° 0 mm 1 m/s 756 mmHg 48%
    17:00 +31°C° 0 mm 1 m/s 756 mmHg 53%
    18:00 +29°C° 0 mm 1 m/s 756 mmHg 57%
    19:00 +27°C° 0 mm 1 m/s 757 mmHg 61%
    20:00 +27°C° 0 mm 1 m/s 757 mmHg 64%
    21:00 +26°C° 0 mm 1 m/s 758 mmHg 66%
    22:00 +25°C° 0 mm 1 m/s 758 mmHg 69%
    23:00 +25°C° 0 mm 1 m/s 758 mmHg 70%

    25 Novembre, Lundi

    Heure Température Précipitation Vent Pression Humidité
    00:00 +25°C° 0 mm 1 m/s 758 mmHg 71%
    01:00 +24°C° 0 mm 1 m/s 757 mmHg 72%
    02:00 +24°C° 0 mm 1 m/s 757 mmHg 72%
    03:00 +23°C° 0 mm 1 m/s 757 mmHg 73%
    04:00 +23°C° 0 mm 1 m/s 757 mmHg 74%
    05:00 +23°C° 0 mm 1 m/s 758 mmHg 75%
    06:00 +23°C° 0 mm 2 m/s 758 mmHg 76%
    07:00 +23°C° 0 mm 2 m/s 759 mmHg 77%
    08:00 +25°C° 0 mm 2 m/s 759 mmHg 71%
    09:00 +27°C° 0 mm 2 m/s 759 mmHg 66%
    10:00 +29°C° 0 mm 2 m/s 760 mmHg 60%
    11:00 +30°C° 0 mm 2 m/s 759 mmHg 57%
    12:00 +32°C° 0 mm 2 m/s 758 mmHg 53%
    13:00 +34°C° 0 mm 2 m/s 757 mmHg 49%
    14:00 +34°C° 0 mm 2 m/s 757 mmHg 51%
    15:00 +32°C° 0 mm 2 m/s 756 mmHg 52%
    16:00 +32°C° 0 mm 2 m/s 756 mmHg 54%
    17:00 +31°C° 0 mm 2 m/s 756 mmHg 57%
    18:00 +30°C° 0 mm 2 m/s 757 mmHg 61%
    19:00 +29°C° 0 mm 2 m/s 757 mmHg 65%
    20:00 +28°C° 0 mm 2 m/s 758 mmHg 66%
    21:00 +28°C° 0 mm 2 m/s 758 mmHg 68%
    22:00 +27°C° 0 mm 2 m/s 758 mmHg 70%
    23:00 +27°C° 0 mm 2 m/s 758 mmHg 72%
    Voir plus